Flag for Switzerland Weather past 2 weeks in Ilanz, Graubünden, Switzerland

Now
56 °F

Cool.


Feels Like: 53 °F
Forecast: 39 / 58 °F
Wind: 12 mph from Northeast

Location: Chur-Ems

Current Time: Sep 5, 2015 at 5:13:43 PM

Latest Report: Sep 5, 2015 at 4:00 PM


Visibility: N/A

Pressure: 30.06 "Hg (27.64 "Hg at 703m altitude)

Humidity: 67%

Dew point: 45 °F

Location of IlanzLocation

Historic Weather in Ilanz — Graph

°F

Ilanz temperature yesterday

Maximum temperature yesterday: 68 °F (at 3:00 PM)
Minimum temperature yesterday: 53 °F (at 6:00 AM)
Average temperature yesterday: 60 °F

Past Weeks' High & Low Weather Summary

 TemperatureHumidityPressure
High90 °F (Aug 31, 3:00 PM)96% (Sep 3, 8:00 PM)30.21 "Hg (Sep 3, 8:00 PM)
Low50 °F (Sep 5, 8:00 AM)21% (Aug 31, 3:00 PM)29.65 "Hg (Aug 24, 12:40 PM)
Average68 °F61%29.98 "Hg
* Reported Aug 21 3:00 PM — Sep 5 3:00 PM, Ilanz, Weather by CustomWeather, © 2015

Note: Actual official high and low records may vary slightly from our data, if they occured in-between our weather recording intervals... More about our weather records

Advertising

Ilanz weather history for previous 24 hours

 ConditionsComfort  
Time TempWeatherWind HumidityBarometerVisibility
3:00 PM
Sat, Sep 5
55 °FCool.13 mph77%30.06 "HgN/A
2:00 PM55 °FCool.10 mph78%30.05 "HgN/A
1:00 PM54 °FCool.12 mph81%30.06 "HgN/A
12:00 PM54 °FCool.9 mph79%30.05 "HgN/A
11:00 AM53 °FFog.5 mph86%30.06 "Hg6 mi
10:00 AM51 °FCool.5 mph89%30.06 "HgN/A
9:00 AM50 °FCool.2 mph93%30.06 "HgN/A
8:00 AM50 °FLight rain. Low clouds.7 mph91%30.05 "Hg3 mi
7:00 AM51 °FCool.10 mph91%30.03 "HgN/A
6:00 AM51 °FCool.9 mph92%30.03 "HgN/A
4:00 AM53 °FCool.8 mph91%29.98 "HgN/A
3:00 AM56 °FCool.14 mph73%29.96 "HgN/A
2:00 AM58 °FOvercast.8 mph73%29.96 "Hg10 mi
1:00 AM58 °FCool.10 mph72%29.96 "HgN/A
12:00 AM59 °FCool.1 mph72%29.97 "HgN/A
10:00 PM
Fri, Sep 4
61 °FCool.6 mph63%29.95 "HgN/A
9:00 PM61 °FCool.6 mph62%29.93 "HgN/A
7:00 PM64 °FMild.12 mph54%29.90 "HgN/A
6:00 PM65 °FMild.13 mph52%29.89 "HgN/A
5:00 PM68 °FPartly sunny.14 mph50%29.88 "Hg11 mi
Weather by CustomWeather, © 2015

See weather overviewHow to use our weather pages